This demonstration page uses our WeatherBlox Daily Observations layout. Learn more.

Left ArrowRight Arrow

40.92945, -100.16068

Hourly Observations for October 7, 2016

Temp ( °F °C ) Dew Point ( °F °C ) Humidity (%) Winds ( mph kmh ) Pressure ( in mb ) Visibility ( mi km ) Precip ( " mm )
12:15 am 00:15 Clear 33 0.8 32 -0.1 94 94 W 3 6 30.33 1027 10 16 N/A
12:35 am 00:35 Clear 31 -0.5 29 -1.6 92 92 W 5 7 30.36 1028 10 16 N/A
12:55 am 00:55 Clear 31 -0.5 29 -1.5 93 93 WNW 6 9 30.36 1028 10 16 N/A
1:15 am 01:15 Clear 32 -0.1 30 -1 94 94 WNW 5 7 30.33 1027 10 16 N/A
1:35 am 01:35 Clear 33 0.5 32 -0.1 96 96 WNW 7 11 30.36 1028 10 16 N/A
1:55 am 01:55 Clear 33 0.6 32 -0.1 95 95 W 6 9 30.36 1028 10 16 N/A
2:15 am 02:15 Clear 32 0.2 31 -0.5 95 95 W 7 11 30.36 1028 10 16 N/A
2:35 am 02:35 Clear 33 0.7 32 0 95 95 WNW 8 13 30.36 1028 10 16 N/A
2:55 am 02:55 Clear 34 0.9 32 0 94 94 NW 9 15 30.36 1028 10 16 N/A
3:15 am 03:15 Clear 33 0.7 32 -0.1 94 94 NW 6 9 30.36 1028 10 16 N/A
3:35 am 03:35 Clear 33 0.5 31 -0.5 93 93 W 6 9 30.36 1028 10 16 N/A
3:55 am 03:55 Clear 32 0.1 31 -0.6 95 95 W 5 7 30.42 1030 10 16 N/A
4:15 am 04:15 Clear 32 0 30 -1 93 93 W 6 9 30.42 1030 10 16 N/A
4:35 am 04:35 Clear 31 -0.7 29 -1.7 93 93 Calm 30.42 1030 10 16 N/A
4:55 am 04:55 Clear 31 -0.3 30 -1.1 94 94 Calm 30.42 1030 10 16 N/A
5:15 am 05:15 Clear 31 -0.4 30 -1.1 95 95 Calm 30.42 1030 10 16 N/A
5:35 am 05:35 Clear 31 -0.7 29 -1.5 94 94 SSW 3 6 30.45 1031 10 16 N/A
5:55 am 05:55 Clear 30 -1.3 28 -2.1 94 94 SW 3 6 30.45 1031 10 16 N/A
6:15 am 06:15 Clear 30 -0.9 29 -1.9 93 93 Calm 30.45 1031 10 16 N/A
6:35 am 06:35 Clear 30 -1.1 28 -2 94 94 Calm 30.45 1031 10 16 N/A
6:55 am 06:55 Clear 30 -1 28 -2 93 93 W 3 6 30.45 1031 10 16 0.00 0.00
7:15 am 07:15 Clear 29 -1.8 27 -2.8 93 93 Calm 30.45 1031 10 16 N/A
7:35 am 07:35 Clear 29 -1.4 28 -2.1 95 95 W 5 7 30.45 1031 7 11 N/A
7:55 am 07:55 Sunny 29 -1.5 28 -2.4 94 94 W 6 9 30.48 1032 10 16 N/A
8:15 am 08:15 Sunny 30 -0.9 29 -1.7 94 94 W 5 7 30.48 1032 10 16 N/A
8:35 am 08:35 Sunny 31 -0.4 30 -1.3 94 94 W 3 6 30.48 1032 10 16 N/A
8:55 am 08:55 Sunny 33 0.7 32 0 95 95 W 3 6 30.48 1032 10 16 N/A
9:15 am 09:15 Sunny 36 2.1 34 1 93 93 W 3 6 30.45 1031 10 16 N/A
9:35 am 09:35 Sunny 38 3.6 35 1.8 88 88 W 5 7 30.45 1031 10 16 N/A
9:55 am 09:55 Sunny 41 5.1 37 2.5 83 83 W 5 7 30.42 1030 10 16 N/A
10:15 am 10:15 Sunny 44 6.6 37 3 78 78 W 5 7 30.42 1030 10 16 N/A
10:35 am 10:35 Sunny 46 8 39 3.8 75 75 WSW 3 6 30.39 1029 10 16 N/A
10:55 am 10:55 Sunny 49 9.3 39 4 70 70 WSW 7 11 30.39 1029 10 16 N/A
11:15 am 11:15 Sunny 53 11.4 38 3.6 59 59 WSW 10 17 30.36 1028 10 16 N/A
11:35 am 11:35 Sunny 53 11.5 36 2.4 54 54 WSW 10 17 30.36 1028 10 16 N/A
11:55 am 11:55 Sunny 54 12.2 37 3 54 54 SW 13 20 30.36 1028 10 16 N/A
12:15 pm 12:15 Sunny 55 12.7 36 2.1 49 49 WSW 9 15 30.36 1028 10 16 N/A
12:35 pm 12:35 Sunny 56 13.6 37 2.7 48 48 SW 12 19 30.33 1027 10 16 N/A
12:55 pm 12:55 Sunny 58 14.4 36 2.1 44 44 SW 13 20 30.33 1027 10 16 N/A
1:15 pm 13:15 Sunny 59 14.9 35 1.7 41 41 WSW 12 19 30.30 1026 10 16 N/A
1:35 pm 13:35 Sunny 60 15.6 34 1.2 38 38 W 12 19 30.30 1026 10 16 N/A
1:55 pm 13:55 Sunny 61 16 32 0.2 34 34 SW 10 17 30.30 1026 10 16 N/A
2:15 pm 14:15 Sunny 62 16.5 33 0.3 34 34 SW 12 19 30.24 1024 10 16 N/A
2:35 pm 14:35 Sunny 63 17.1 33 0.3 32 32 WSW 12 19 30.24 1024 10 16 N/A
2:55 pm 14:55 Sunny 64 17.6 33 0.4 31 31 WSW 13 20 30.21 1023 10 16 N/A
3:15 pm 15:15 Sunny 65 18.3 33 0.3 30 30 WSW 12 19 30.21 1023 10 16 N/A
3:35 pm 15:35 Sunny 66 18.7 32 0 29 29 WSW 10 17 30.21 1023 10 16 N/A
3:55 pm 15:55 Sunny 67 19.2 32 0.2 28 28 WSW 12 19 30.18 1022 10 16 N/A
4:15 pm 16:15 Sunny 67 19.5 32 0.1 27 27 WSW 12 19 30.15 1021 10 16 N/A
4:35 pm 16:35 Sunny 67 19.4 32 0.2 28 28 WSW 6 9 30.15 1021 10 16 N/A
4:55 pm 16:55 Sunny 67 19.5 32 0.1 27 27 SW 9 15 30.15 1021 10 16 N/A
5:15 pm 17:15 Sunny 67 19.5 33 0.3 28 28 WSW 8 13 30.15 1021 10 16 N/A
5:35 pm 17:35 Sunny 67 19.5 32 0 27 27 WSW 7 11 30.12 1020 10 16 N/A
5:55 pm 17:55 Sunny 67 19.5 33 0.3 28 28 W 5 7 30.12 1020 10 16 N/A
6:15 pm 18:15 Sunny 66 18.8 34 1 30 30 NW 5 7 30.12 1020 10 16 N/A
6:35 pm 18:35 Sunny 65 18.1 33 0.8 31 31 WNW 5 7 30.15 1021 10 16 N/A
6:55 pm 18:55 Sunny 63 17.3 32 0 31 31 NNW 3 6 30.15 1021 10 16 N/A
7:15 pm 19:15 Clear 58 14.5 34 1.1 40 40 Calm 30.21 1023 10 16 N/A
7:35 pm 19:35 Clear 53 11.8 36 2 51 51 Calm 30.24 1024 10 16 N/A
7:55 pm 19:55 Clear 53 11.5 36 2.1 53 53 SE 5 7 30.24 1024 10 16 N/A
8:15 pm 20:15 Clear 52 11 36 2.1 55 55 SSE 5 7 30.24 1024 10 16 N/A
8:35 pm 20:35 Clear 52 11.3 34 1.1 50 50 SSE 7 11 30.24 1024 10 16 N/A
8:55 pm 20:55 Clear 51 10.4 34 1.2 53 53 SSE 7 11 30.24 1024 10 16 N/A
9:15 pm 21:15 Clear 48 8.7 33 0.7 58 58 SSE 8 13 30.27 1025 10 16 N/A
9:35 pm 21:35 Clear 49 9.4 33 0.4 54 54 S 6 9 30.24 1024 10 16 N/A
9:55 pm 21:55 Clear 49 9.5 32 0.1 52 52 SSE 5 7 30.24 1024 10 16 N/A
10:15 pm 22:15 Clear 47 8.6 32 0 55 55 SSE 7 11 30.27 1025 10 16 N/A
10:35 pm 22:35 Clear 46 7.8 32 0.2 59 59 SSE 6 9 30.27 1025 10 16 N/A
10:55 pm 22:55 Clear 46 7.5 33 0.4 61 61 S 8 13 30.27 1025 10 16 N/A
11:15 pm 23:15 Clear 46 8 33 0.5 59 59 S 8 13 30.27 1025 10 16 N/A
11:35 pm 23:35 Clear 46 7.6 33 0.5 61 61 S 8 13 30.24 1024 10 16 N/A
11:55 pm 23:55 Clear 46 7.5 32 0.2 60 60 S 7 11 30.27 1025 10 16 N/A

Powered by AerisWeather